Starlink 30221

operational
NORAD ID: 57418 Int'l Des: 2023-102 Owner: SPXS Country: US Constellation: starlink
LEOCIRCULAR

关于 Starlink 30221

正在加载描述...

实时位置

正在加载3D地球...

即将过境

高度历史

Altitude vs Time

uPlot chart will show altitude changes over time

两行轨道根数

1 57418U 23102Q 25306.47504169 .00004211 00000-0 32677-3 0 9991
2 57418 43.0086 219.8052 0000445 248.6286 111.4509 15.02519213127105
Epoch: Nov 2, 2025 • Age: 17 hours

当前状态

高度 571.1 km
速度 7.58 km/s
星下点 -40.65°S, 7.58°W
发射日期 Jul 19, 2023
运行时间 2.2 years
类型 internet

技术详情

分类 Payload
质量 730.00 kg
干质量 700.00 kg
总质量 730.00 kg
长度 0.30 m
直径 4.10 m
跨度 29.00 m
形状 Box + pan
制造商 SPXS
平台类型 Starlink V2M
阶段状态 In Orbit
所有者/国家 SPXS/US

大型星座

Loading constellations...